Change the Weather History Date:

Friday, December 21, 2012

  Actual Average Record
Temperature  
Mean Temperature 44 °F -  
Max Temperature 52 °F 40 °F 64 °F (1999)
Min Temperature 37 °F 24 °F 5 °F (2004)
Degree Days  
Heating Degree Days 20    
Moisture  
Dew Point 41 °F    
Average Humidity 87    
Maximum Humidity 100    
Minimum Humidity 66    
Precipitation  
Precipitation 0.55 in - - ()
Sea Level Pressure  
Sea Level Pressure 29.47 in    
Wind  
Wind Speed 15 mph (SSE)    
Max Wind Speed 32 mph    
Max Gust Speed 47 mph    
Visibility 8 miles    
Events Rain    
Averages and records for this station are not official NWS values.
T = Trace of Precipitation, MM = Missing Value Source: NWS Daily Summary

Daily Weather History Graph

Daily Weather History Graph

Search for Another Location

Airport or City:

Trip Planner

Search our weather history database for the weather conditions in past years. The results will help you decide how hot, cold, wet, or windy it might be!

Date:

Astronomy

Dec. 21, 2012 Rise Set
Actual Time 7:05 AM EST 4:15 PM EST
Civil Twilight 6:34 AM EST 4:46 PM EST
Nautical Twilight 5:59 AM EST 5:21 PM EST
Astronomical Twilight 5:25 AM EST 5:55 PM EST
Moon 12:03 PM EST (12/21) 12:46 AM EST (12/21)
Length of Visible Light 10h 12m
Length of Day
9h 09m
Waxing Gibbous, 64% of the Moon is Illuminated
Dec 21
Waxing Gibbous
Dec 28
Full
Jan 4
Last Quarter
Jan 11
New
Jan 18
First Quarter

Hourly Weather History & Observations

Time (EST) Temp. Windchill Dew Point Humidity Pressure Visibility Wind Dir Wind Speed Gust Speed Precip Events Conditions
12:15 AM 37.4 °F - 37.4 °F 100% 30.03 in 10.0 mi Calm Calm - N/A   Unknown
12:35 AM 37.4 °F - 37.4 °F 100% 30.02 in 10.0 mi Calm Calm - N/A   Unknown
12:55 AM 37.4 °F 32.8 °F 37.4 °F 100% 30.01 in 10.0 mi NE 5.8 mph - N/A   Unknown
1:15 AM 37.4 °F 30.8 °F 37.4 °F 100% 29.97 in 10.0 mi East 9.2 mph - N/A   Unknown
1:35 AM 39.2 °F 34.2 °F 37.4 °F 93% 29.94 in 10.0 mi East 6.9 mph - N/A   Unknown
1:55 AM 39.2 °F 35.0 °F 39.2 °F 100% 29.95 in 10.0 mi SE 5.8 mph - N/A Rain Light Rain
2:15 AM 41.0 °F 36.4 °F 39.2 °F 93% 29.95 in 10.0 mi SE 6.9 mph - N/A   Unknown
2:35 AM 41.0 °F 35.8 °F 39.2 °F 93% 29.94 in 10.0 mi ESE 8.1 mph - N/A   Unknown
2:55 AM 41.0 °F 35.8 °F 39.2 °F 93% 29.93 in 10.0 mi ESE 8.1 mph - N/A   Unknown
3:15 AM 41.0 °F 33.9 °F 39.2 °F 93% 29.90 in 8.0 mi ESE 12.7 mph 18.4 mph N/A   Unknown
3:35 AM 41.0 °F 33.5 °F 39.2 °F 93% 29.88 in 9.0 mi ESE 13.8 mph 20.7 mph N/A   Unknown
3:55 AM 42.8 °F 35.4 °F 39.2 °F 87% 29.86 in 10.0 mi ESE 15.0 mph 20.7 mph N/A   Unknown
4:15 AM 42.8 °F 35.1 °F 39.2 °F 87% 29.85 in 10.0 mi ESE 16.1 mph 26.5 mph N/A   Unknown
4:35 AM 42.8 °F 34.0 °F 37.4 °F 81% 29.81 in 10.0 mi ESE 20.7 mph 29.9 mph N/A   Unknown
4:55 AM 42.8 °F 33.1 °F 39.2 °F 87% 29.75 in 10.0 mi East 25.3 mph 35.7 mph N/A   Unknown
5:15 AM 42.8 °F 33.8 °F 39.2 °F 87% 29.77 in 10.0 mi SE 21.9 mph 33.4 mph N/A Rain Light Rain
5:35 AM 42.8 °F 33.5 °F 39.2 °F 87% 29.78 in 10.0 mi ESE 23.0 mph 29.9 mph N/A   Unknown
5:55 AM 42.8 °F 34.0 °F 39.2 °F 87% 29.74 in 10.0 mi ESE 20.7 mph 34.5 mph N/A   Unknown
6:15 AM 44.6 °F 36.4 °F 39.2 °F 81% 29.72 in 10.0 mi ESE 20.7 mph 34.5 mph N/A   Unknown
6:35 AM 44.6 °F 36.1 °F 39.2 °F 81% 29.66 in 10.0 mi ESE 21.9 mph 33.4 mph N/A   Unknown
6:55 AM 44.6 °F 36.4 °F 39.2 °F 81% 29.67 in 10.0 mi ESE 20.7 mph 33.4 mph N/A   Unknown
7:15 AM 44.6 °F 36.4 °F 39.2 °F 81% 29.67 in 10.0 mi ESE 20.7 mph 32.2 mph N/A   Unknown
7:35 AM 44.6 °F 35.9 °F 41.0 °F 87% 29.64 in 10.0 mi ESE 23.0 mph 36.8 mph N/A   Unknown
7:55 AM 44.6 °F 36.4 °F 41.0 °F 87% 29.63 in 10.0 mi ESE 20.7 mph 42.6 mph N/A   Unknown
8:15 AM 44.6 °F 35.7 °F 41.0 °F 87% 29.62 in 7.0 mi ESE 24.2 mph 38.0 mph N/A   Unknown
8:35 AM 44.6 °F 35.9 °F 42.8 °F 93% 29.61 in 2.5 mi ESE 23.0 mph 36.8 mph N/A   Mist
8:55 AM 46.4 °F 38.1 °F 44.6 °F 93% 29.58 in 4.0 mi ESE 24.2 mph 34.5 mph N/A Rain Light Rain
9:15 AM 46.4 °F 38.3 °F 44.6 °F 93% 29.56 in 3.0 mi ESE 23.0 mph 35.7 mph N/A   Mist
9:35 AM 46.4 °F 37.0 °F 44.6 °F 93% 29.51 in 5.0 mi ESE 31.1 mph 44.9 mph N/A   Mist
9:55 AM 46.4 °F 37.2 °F 46.4 °F 100% 29.50 in 6.0 mi ESE 29.9 mph 43.7 mph N/A   Mist
10:15 AM 48.2 °F - 46.4 °F 93% 29.47 in 3.0 mi SE 32.2 mph 47.2 mph N/A Rain Light Rain
10:35 AM 48.2 °F - 46.4 °F 93% 29.43 in 1.8 mi ESE 29.9 mph 41.4 mph 0.01 in   Mist
10:55 AM 48.2 °F - 48.2 °F 100% 29.40 in 5.0 mi ESE 23.0 mph 43.7 mph 0.01 in   Mist
11:15 AM 48.2 °F - 48.2 °F 100% 29.37 in 2.0 mi ESE 28.8 mph 43.7 mph N/A   Mist
11:35 AM 48.2 °F - 48.2 °F 100% 29.33 in 2.0 mi ESE 28.8 mph 42.6 mph N/A   Mist
11:55 AM 50.0 °F - 48.2 °F 94% 29.30 in 2.0 mi SE 26.5 mph 39.1 mph N/A   Mist
12:15 PM 50.0 °F - 48.2 °F 94% 29.27 in 1.8 mi SE 27.6 mph 38.0 mph N/A   Mist
12:35 PM 50.0 °F - 50.0 °F 100% 29.23 in 1.2 mi SE 31.1 mph 40.3 mph N/A   Mist
12:55 PM 50.0 °F - 50.0 °F 100% 29.20 in 2.0 mi SE 31.1 mph 44.9 mph N/A   Mist
1:15 PM 50.0 °F - 50.0 °F 100% 29.18 in 1.5 mi SE 28.8 mph 40.3 mph N/A Rain Light Rain
1:35 PM 51.8 °F - 50.0 °F 94% 29.17 in 0.8 mi SE 32.2 mph 42.6 mph N/A   Mist
1:55 PM 51.8 °F - 50.0 °F 94% 29.20 in 1.2 mi South 25.3 mph 40.3 mph N/A   Mist
2:15 PM 50.0 °F - 50.0 °F 100% 29.19 in 2.0 mi South 18.4 mph 21.9 mph N/A   Mist
2:35 PM 50.0 °F - 50.0 °F 100% 29.19 in 4.0 mi South 10.4 mph - N/A   Mist
2:55 PM 50.0 °F - 50.0 °F 100% 29.18 in 5.0 mi SW 15.0 mph - N/A   Mist
3:15 PM 50.0 °F - 48.2 °F 94% 29.17 in 10.0 mi SW 13.8 mph 19.6 mph N/A   Unknown
3:35 PM 48.2 °F - 44.6 °F 87% 29.17 in 10.0 mi WSW 16.1 mph 28.8 mph N/A   Unknown
3:55 PM 48.2 °F - 44.6 °F 87% 29.18 in 10.0 mi SW 16.1 mph 24.2 mph N/A   Unknown
4:15 PM 48.2 °F - 44.6 °F 87% 29.19 in 10.0 mi SW 13.8 mph - N/A   Unknown
4:35 PM 48.2 °F - 42.8 °F 82% 29.20 in 10.0 mi WSW 16.1 mph 24.2 mph N/A   Unknown
4:55 PM 46.4 °F 40.4 °F 41.0 °F 81% 29.20 in 10.0 mi WSW 13.8 mph 21.9 mph N/A   Unknown
5:15 PM 44.6 °F 37.4 °F 41.0 °F 87% 29.21 in 10.0 mi WSW 16.1 mph - N/A   Unknown
5:35 PM 44.6 °F 36.9 °F 41.0 °F 87% 29.21 in 10.0 mi WSW 18.4 mph 25.3 mph N/A   Unknown
5:55 PM 44.6 °F 37.2 °F 39.2 °F 81% 29.22 in 10.0 mi WSW 17.3 mph 24.2 mph N/A   Unknown
6:15 PM 44.6 °F 36.4 °F 37.4 °F 76% 29.22 in 10.0 mi WSW 20.7 mph 26.5 mph N/A   Unknown
6:35 PM 42.8 °F 34.0 °F 35.6 °F 76% 29.22 in 10.0 mi SW 20.7 mph 35.7 mph N/A   Unknown
6:55 PM 42.8 °F 35.4 °F 37.4 °F 81% 29.23 in 10.0 mi WSW 15.0 mph 25.3 mph N/A   Unknown
7:15 PM 41.0 °F 31.9 °F 35.6 °F 81% 29.23 in 10.0 mi WSW 19.6 mph 26.5 mph N/A   Unknown
7:35 PM 41.0 °F 32.5 °F 35.6 °F 81% 29.24 in 10.0 mi WSW 17.3 mph 27.6 mph N/A   Unknown
7:55 PM 42.8 °F 33.8 °F 32.0 °F 66% 29.24 in 10.0 mi SW 21.9 mph 27.6 mph N/A   Unknown
8:15 PM 41.0 °F 32.5 °F 32.0 °F 70% 29.24 in 10.0 mi SW 17.3 mph 34.5 mph N/A   Unknown
8:35 PM 41.0 °F 31.1 °F 33.8 °F 76% 29.25 in 10.0 mi WSW 23.0 mph 29.9 mph N/A   Unknown
8:55 PM 41.0 °F 31.6 °F 33.8 °F 76% 29.26 in 10.0 mi WSW 20.7 mph 27.6 mph N/A   Unknown
9:15 PM 39.2 °F 30.2 °F 35.6 °F 87% 29.27 in 10.0 mi WSW 17.3 mph 29.9 mph N/A   Unknown
9:35 PM 39.2 °F 29.0 °F 33.8 °F 81% 29.27 in 10.0 mi WSW 21.9 mph 28.8 mph N/A   Unknown
9:55 PM 41.0 °F 31.4 °F 32.0 °F 70% 29.27 in 10.0 mi WSW 21.9 mph 27.6 mph N/A   Unknown
10:15 PM 41.0 °F 32.2 °F 32.0 °F 70% 29.28 in 10.0 mi WSW 18.4 mph 31.1 mph N/A   Unknown
10:35 PM 39.2 °F 30.2 °F 32.0 °F 75% 29.28 in 10.0 mi WSW 17.3 mph 24.2 mph N/A   Unknown
10:55 PM 41.0 °F 31.6 °F 32.0 °F 70% 29.28 in 10.0 mi WSW 20.7 mph 27.6 mph N/A   Unknown
11:15 PM 39.2 °F 30.5 °F 32.0 °F 75% 29.28 in 10.0 mi WSW 16.1 mph 27.6 mph N/A   Unknown
11:35 PM 39.2 °F 29.6 °F 32.0 °F 75% 29.28 in 10.0 mi WSW 19.6 mph 29.9 mph N/A   Unknown
11:55 PM 39.2 °F 30.5 °F 32.0 °F 75% 29.28 in 10.0 mi WSW 16.1 mph 26.5 mph N/A   Unknown